Hourly Data Report for July 05, 2021

TORONTO CITY
ONTARIO
Current Station Operator: ECCC - MSC

43°40'00.000" N
79°24'00.000" W
112.50 m
6158355
71508
XTO

Download Data

Hourly Data (July 2021)
Hourly Data Report for July 5, 2021
TIME
LST
Temp Definition
°C
Dew Point Definition
°C
Rel Hum Definition
%
Precip. Amount Definition
mm

Wind Dir Definition
10's deg

Wind Spd Definition
km/h
Visibility Definition
km
Stn Press Definition
kPa
Hmdx Definition


Wind Chill Definition


Weather Definition


00:00 20.1 14.2 69 0.0       100.13     LegendNANA
01:00 19.5 14.8 74 0.0       100.12     LegendNANA
02:00 19.6 14.9 75 0.0       100.10     LegendNANA
03:00 19.7 14.6 72 0.0       100.07     LegendNANA
04:00 19.7 14.1 70 0.0       100.04     LegendNANA
05:00 19.5 14.4 72 0.0       100.07     LegendNANA
06:00 19.7 15.2 75 0.0       100.05     LegendNANA
07:00 20.5 16.2 77 0.0       100.07 25   LegendNANA
08:00 21.9 16.9 73 0.0       100.06 27   LegendNANA
09:00 23.5 16.3 64 0.0       100.06 28   LegendNANA
10:00 24.2 16.7 63 0.0       100.07 29   LegendNANA
11:00 25.7 17.0 59 0.0       100.02 31   LegendNANA
12:00 25.7 17.7 61 0.0       99.98 31   LegendNANA
13:00 27.3 18.2 58 0.0       99.91 33   LegendNANA
14:00 28.3 19.0 57 0.0       99.88 35   LegendNANA
15:00 28.0 19.8 61 0.0       99.80 35   LegendNANA
16:00 27.6 20.8 66 0.0       99.71 36   LegendNANA
17:00 27.5 20.7 66 0.0       99.70 36   LegendNANA
18:00 27.0 20.8 69 0.0       99.76 35   LegendNANA
19:00 26.9 20.8 69 0.0       99.85 35   LegendNANA
20:00 24.8 19.7 73 0.0       99.83 32   LegendNANA
21:00 24.8 19.9 74 0.0       99.79 32   LegendNANA
22:00 24.0 20.4 80 0.1       99.80 32   LegendNANA
23:00 24.0 20.2 79 0.0       99.77 32   LegendNANA

Notes on Data Quality.

Legend

  • E = Estimated
  • M = Missing
  • NA = Not Available*
  • [empty] = Indicates an unobserved value
Date modified: